[[{"header":{"parameterUnit":"m.s-1","parameterCategory":1,"la1":30.2991,"la2":30.254,"lo1":-89.0895,"lo2":-89.0444,"dy":0.0017,"dx":0.0017,"nx":28,"ny":28,"refTime":"2025-06-08T21:00:00:Z","depth":0,"parameterNumber":2,"parameterNumberName":"U-component_of_WINDS"},"data":[0,0,0,0,0,0,0,0,0,0,0,0,0,0,0,0,0,0,0,0,0,0,0,0,0,0,0,0,0,0,0,0,0,0,0,0,0,0,0,0,0,0,0,0,0,0,0,0,0,0,0,0,0,0,0,0,0,0,3.0736,3.0735,0,3.0716,3.0716,3.0716,3.0706,3.0706,3.0706,3.0705,3.0685,3.0685,3.0684,0,0,0,0,0,0,0,0,0,0,0,0,0,3.0764,3.0764,3.0736,3.0735,3.0735,3.0717,3.0716,3.0716,3.0706,3.0706,3.0705,3.0705,3.0685,3.0685,3.0684,0,0,0,0,0,0,0,0,0,0,0,0,0,3.0749,3.0764,3.0736,3.0728,3.0727,3.0717,3.0716,3.0716,3.0706,3.0706,3.0705,3.0705,3.0686,3.0685,3.0684,3.068,0,0,3.0682,3.0681,0,0,0,0,0,0,0,0,3.075,3.0748,3.0729,3.0728,3.0727,3.0713,3.0719,3.0704,3.0706,3.0714,3.0705,3.0705,3.0695,3.0693,3.069,3.0679,3.0678,3.0682,3.0681,3.0681,3.0681,0,0,0,0,0,0,0,3.0751,3.0749,3.0728,3.0729,3.0728,3.0725,3.0723,3.0716,3.0705,3.0713,3.0712,3.071,3.0694,3.069,3.0689,3.0678,3.0682,3.0681,3.0681,3.068,3.0665,3.0665,0,0,0,0,0,0,3.0753,3.075,3.0729,3.0727,3.0739,3.0725,3.0723,3.0718,3.0705,3.0703,3.071,3.071,3.0692,3.069,3.0688,3.0684,3.0681,3.068,3.068,3.0665,3.0665,3.0665,0,0,0,0,0,0,3.0754,3.0752,3.0729,3.0738,3.0735,3.0725,3.0719,3.0718,3.0714,3.0702,3.07,3.0708,3.0692,3.0689,3.0683,3.0683,3.068,3.0679,3.0665,3.0665,3.0665,3.0674,0,0,0,0,0,0,3.0755,3.0752,3.075,3.0738,3.0735,3.0724,3.0719,3.0717,3.0712,3.0712,3.07,3.0698,3.0691,3.0684,3.0682,3.0682,3.0678,3.0665,3.0665,3.0665,3.0673,3.0674,3.0675,0,0,0,0,0,3.0756,3.0752,3.075,3.0747,3.0732,3.0724,3.0722,3.0714,3.0712,3.0711,3.0704,3.0699,3.0683,3.0683,3.0681,3.068,3.0665,3.0665,3.0665,3.0673,3.0674,3.0675,0,0,0,0,0,0,3.0763,3.0751,3.0747,3.074,3.0733,3.0722,3.0719,3.0715,3.0708,3.0708,3.0698,3.0696,3.069,3.0685,3.0685,3.0677,3.0674,3.0673,3.0681,3.0681,3.0682,3.0683,3.0678,0,0,0,0,0,3.0764,3.0758,3.0748,3.0742,3.0739,3.073,3.0726,3.0721,3.0713,3.071,3.0702,3.0695,3.0689,3.0685,3.0678,3.0673,3.0671,3.0672,3.0673,3.0673,3.0673,3.0671,3.0672,3.0666,3.0666,3.0666,0,0,3.0765,3.0758,3.0754,3.0743,3.0737,3.0732,3.0727,3.0721,3.0717,3.0709,3.0702,3.0697,3.0689,3.0683,3.068,3.0678,3.0674,3.0673,3.0674,3.0673,3.0671,3.0672,3.0672,3.0666,3.0666,3.0666,0,0,3.0764,3.0758,3.0754,3.0748,3.074,3.0734,3.0733,3.0723,3.072,3.0713,3.0707,3.0703,3.0692,3.0687,3.0682,3.0683,3.0678,3.0681,3.0685,3.0683,3.0684,3.0684,3.0685,3.0685,3.0681,3.0681,3.0681,0,3.0767,3.0758,3.0752,3.0747,3.0743,3.0736,3.0732,3.0727,3.0717,3.0714,3.0712,3.07,3.0694,3.0687,3.0688,3.0685,3.0684,3.0682,3.0684,3.0684,3.0685,3.0685,3.0686,3.0682,3.0682,3.0682,3.0682,0,3.0762,3.0757,3.0754,3.0746,3.0741,3.0737,3.073,3.0726,3.0723,3.0718,3.0712,3.0705,3.0697,3.0696,3.0691,3.069,3.0689,3.0686,3.0682,3.0686,3.0686,3.0687,3.0682,3.0682,3.0682,3.0682,0,0,3.0763,3.0753,3.0752,3.0749,3.0741,3.0736,3.0732,3.0726,3.0724,3.0717,3.0714,3.0706,3.0704,3.07,3.0695,3.0694,3.0696,3.0691,3.0691,3.0692,3.0695,3.0697,3.0698,3.0694,3.0694,3.0694,3.0696,0,3.0762,3.0754,3.0749,3.0744,3.0739,3.0734,3.0731,3.0726,3.0722,3.0718,3.0713,3.0708,3.0705,3.0703,3.0701,3.0696,3.0696,3.0696,3.0691,3.0691,3.0693,3.0698,3.07,3.0702,3.0696,3.0696,3.0696,0,3.0758,3.0754,3.0748,3.0742,3.074,3.0737,3.0732,3.0728,3.0723,3.072,3.0716,3.0712,3.0708,3.0706,3.0702,3.0702,3.07,3.0697,3.0697,3.0696,3.0693,3.0697,3.0702,3.0703,3.0696,3.0696,3.0696,0,3.076,3.0753,3.0749,3.0746,3.0739,3.0737,3.0734,3.0729,3.0726,3.0722,3.072,3.0715,3.0712,3.0709,3.0704,3.0703,3.0701,3.0698,3.0699,3.0699,3.0698,3.0698,3.0703,3.0697,3.0697,3.0697,3.0697,0,3.0759,3.0755,3.075,3.0747,3.0744,3.0739,3.0736,3.0733,3.0729,3.0726,3.0722,3.0719,3.0713,3.071,3.0707,3.0704,3.0703,3.0701,3.07,3.0701,3.0701,3.0699,3.0699,3.0697,3.0697,3.0697,3.0697,0,3.076,3.0755,3.0751,3.0746,3.0744,3.0742,3.0738,3.0735,3.0732,3.0729,3.0728,3.0723,3.0719,3.0715,3.0709,3.0707,3.0705,3.0704,3.0707,3.0706,3.0708,3.0708,3.0712,3.0712,3.0706,3.0706,3.0706,0,3.0758,3.0756,3.0751,3.0749,3.0747,3.0744,3.0741,3.0737,3.0735,3.0731,3.0729,3.0726,3.0723,3.0718,3.0714,3.0711,3.0709,3.0711,3.0708,3.071,3.0709,3.0709,3.071,3.0711,3.0711,3.0711,3.0711,0,3.0757,3.0756,3.0753,3.075,3.0748,3.0745,3.0742,3.0741,3.0736,3.0734,3.0731,3.0729,3.0725,3.0722,3.0719,3.0716,3.0713,3.0712,3.0712,3.0713,3.0715,3.0715,3.0709,3.0712,3.0712,3.0711,3.0711,3.0711,3.0757,3.0756,3.0752,3.075,3.0748,3.0745,3.0744,3.0741,3.0739,3.0735,3.0734,3.0731,3.0728,3.0723,3.0721,3.072,3.0718,3.0718,3.0718,3.0718,3.0719,3.0716,3.0719,3.0719,3.0719,3.0719,3.0719,0,3.0756,3.0754,3.0752,3.0749,3.0747,3.0746,3.0743,3.0742,3.074,3.0738,3.0735,3.0733,3.0731,3.0728,3.0725,3.0725,3.0724,3.0724,3.0724,3.0724,3.072,3.072,3.0726,3.0726,3.0726,3.0726,3.0726,3.0726,3.0755,3.0753,3.0752,3.0749,3.0747,3.0745,3.0744,3.0743,3.0741,3.0739,3.0737,3.0736,3.0733,3.0731,3.073,3.0729,3.0728,3.073,3.0729,3.0725,3.0724,3.0723,3.0724,3.073,3.073,3.0733,3.0733,3.0733]},{"header":{"parameterUnit":"m.s-1","parameterCategory":1,"la1":30.2991,"la2":30.254,"lo1":-89.0895,"lo2":-89.0444,"dy":0.0017,"dx":0.0017,"nx":28,"ny":28,"refTime":"2025-06-08T21:00:00:Z","depth":0,"parameterNumber":3,"parameterNumberName":"V-component_of_WINDS"},"data":[0,0,0,0,0,0,0,0,0,0,0,0,0,0,0,0,0,0,0,0,0,0,0,0,0,0,0,0,0,0,0,0,0,0,0,0,0,0,0,0,0,0,0,0,0,0,0,0,0,0,0,0,0,0,0,0,0,0,4.1359,4.136,0,4.1491,4.1492,4.1494,4.1541,4.154,4.154,4.1539,4.1671,4.1675,4.1679,0,0,0,0,0,0,0,0,0,0,0,0,0,4.1145,4.1149,4.1358,4.136,4.1362,4.149,4.1492,4.1494,4.1541,4.154,4.154,4.1539,4.167,4.1675,4.1679,0,0,0,0,0,0,0,0,0,0,0,0,0,4.1253,4.115,4.1358,4.1401,4.1406,4.149,4.1492,4.1495,4.1541,4.154,4.1539,4.1539,4.1669,4.1674,4.168,4.1731,0,0,4.1698,4.1701,0,0,0,0,0,0,0,0,4.1247,4.1261,4.1393,4.1398,4.1404,4.1499,4.1466,4.1574,4.1541,4.1489,4.1539,4.1538,4.1614,4.1625,4.1651,4.1737,4.1743,4.1699,4.1702,4.1705,4.1707,0,0,0,0,0,0,0,4.124,4.1256,4.1411,4.1395,4.1401,4.1413,4.1427,4.1486,4.1554,4.1494,4.1498,4.1513,4.1617,4.1645,4.1654,4.1745,4.1699,4.1704,4.1708,4.171,4.1882,4.1883,0,0,0,0,0,0,4.1225,4.1249,4.1407,4.1415,4.1322,4.1417,4.1433,4.1469,4.1554,4.1566,4.1513,4.1514,4.1635,4.1647,4.1659,4.1726,4.1705,4.171,4.1714,4.1881,4.1882,4.1883,0,0,0,0,0,0,4.1221,4.1239,4.1401,4.1333,4.1355,4.1422,4.1461,4.1472,4.15,4.1568,4.158,4.1529,4.1635,4.1651,4.1714,4.1731,4.1713,4.1719,4.188,4.1881,4.1883,4.1858,0,0,0,0,0,0,4.1214,4.1237,4.1257,4.1333,4.1358,4.1454,4.1462,4.1475,4.151,4.1513,4.1587,4.1598,4.1636,4.1704,4.1719,4.1739,4.1723,4.1878,4.188,4.1882,4.1858,4.1859,4.186,0,0,0,0,0,4.1206,4.1244,4.1258,4.1277,4.1385,4.1455,4.1469,4.1512,4.1511,4.1532,4.1577,4.1596,4.1727,4.171,4.1728,4.1749,4.1877,4.188,4.1882,4.1857,4.1859,4.186,0,0,0,0,0,0,4.1166,4.1254,4.1271,4.1334,4.1387,4.1462,4.149,4.1512,4.1565,4.1565,4.1616,4.1632,4.1691,4.1726,4.1707,4.1804,4.1803,4.1809,4.1779,4.178,4.1781,4.1771,4.1728,0,0,0,0,0,4.1165,4.1215,4.1289,4.1338,4.1363,4.1422,4.1454,4.1483,4.1539,4.1561,4.161,4.1663,4.1717,4.175,4.1803,4.1863,4.1881,4.1887,4.1888,4.1888,4.1892,4.1929,4.1933,4.1891,4.189,4.189,0,0,4.1162,4.1217,4.1245,4.1331,4.1375,4.1426,4.144,4.1492,4.1531,4.1569,4.1632,4.167,4.1732,4.1795,4.1824,4.1826,4.1908,4.1891,4.1891,4.1895,4.1932,4.1936,4.1939,4.1892,4.1892,4.1892,0,0,4.1183,4.1229,4.1276,4.1321,4.1388,4.1427,4.1438,4.1511,4.1539,4.1603,4.1633,4.1679,4.1769,4.1813,4.1847,4.1888,4.1908,4.1904,4.1908,4.1943,4.1946,4.195,4.1965,4.197,4.1908,4.1908,4.1908,0,4.1171,4.1249,4.1297,4.1348,4.1386,4.1425,4.1473,4.1513,4.1593,4.1618,4.1619,4.1735,4.178,4.1854,4.1864,4.189,4.1905,4.1895,4.1942,4.1946,4.195,4.1965,4.1971,4.1907,4.1907,4.1907,4.1907,0,4.1232,4.1286,4.1315,4.1394,4.1435,4.1484,4.1539,4.1574,4.16,4.1639,4.1705,4.1761,4.1826,4.1846,4.1871,4.1924,4.1923,4.1932,4.1933,4.1952,4.1968,4.1974,4.1906,4.1906,4.1906,4.1906,0,0,4.123,4.1336,4.1346,4.1384,4.1462,4.1504,4.1556,4.1621,4.1651,4.1706,4.1751,4.1828,4.1838,4.1876,4.1907,4.1937,4.1968,4.1943,4.1946,4.1947,4.2032,4.2025,4.2031,4.1982,4.1983,4.1984,4.2027,0,4.1262,4.1357,4.1402,4.1477,4.1528,4.1567,4.1612,4.1665,4.1703,4.1752,4.1794,4.1848,4.1856,4.188,4.1912,4.1957,4.1986,4.1955,4.2024,4.2026,4.2008,4.2039,4.2031,4.2069,4.2033,4.2034,4.2035,0,4.1312,4.1369,4.1449,4.1524,4.1547,4.1586,4.1651,4.1697,4.1758,4.1784,4.1829,4.1859,4.1915,4.1912,4.199,4.1968,4.1999,4.2026,4.2029,4.2037,4.2032,4.2049,4.2082,4.2088,4.2045,4.2044,4.2043,0,4.1304,4.14,4.1461,4.1492,4.158,4.1607,4.1645,4.1706,4.1743,4.18,4.1825,4.1886,4.192,4.1967,4.2014,4.2007,4.2088,4.2088,4.2111,4.211,4.2127,4.2125,4.2166,4.2145,4.2145,4.2145,4.2145,0,4.1335,4.1383,4.1459,4.1497,4.1552,4.1604,4.1657,4.1697,4.1752,4.1798,4.1835,4.1877,4.1936,4.1986,4.2022,4.2082,4.2097,4.212,4.2129,4.2117,4.2114,4.2138,4.2137,4.2147,4.2146,4.2146,4.2146,0,4.1335,4.1388,4.1458,4.1536,4.1557,4.1595,4.1662,4.17,4.1741,4.1799,4.1816,4.188,4.1941,4.1992,4.2072,4.2097,4.216,4.217,4.2139,4.2144,4.2165,4.2163,4.2223,4.2235,4.2206,4.2206,4.2206,0,4.1352,4.139,4.1473,4.1508,4.1546,4.16,4.164,4.1692,4.1731,4.1805,4.1835,4.1899,4.1953,4.2049,4.2102,4.2164,4.2177,4.2194,4.2186,4.2174,4.2179,4.2176,4.2181,4.2194,4.2194,4.2194,4.2194,0,4.1376,4.1401,4.1457,4.1522,4.1568,4.1622,4.1676,4.1702,4.1765,4.1807,4.1871,4.1913,4.1996,4.2059,4.2127,4.2166,4.2191,4.2197,4.2205,4.2194,4.2175,4.2187,4.2142,4.2195,4.2195,4.2195,4.2195,4.2195,4.1386,4.1422,4.1488,4.1549,4.1596,4.1647,4.1687,4.1735,4.1789,4.1862,4.1889,4.1955,4.2017,4.2111,4.2151,4.2203,4.2206,4.2218,4.2222,4.2224,4.2223,4.2166,4.2215,4.2215,4.2215,4.2215,4.2215,0,4.1413,4.1458,4.1514,4.159,4.1638,4.1659,4.1721,4.176,4.1818,4.1874,4.1928,4.2002,4.2065,4.2124,4.219,4.222,4.2233,4.2236,4.2234,4.2243,4.2216,4.2202,4.2224,4.2224,4.2224,4.2224,4.2224,4.2224,4.1433,4.1497,4.153,4.1618,4.1662,4.1728,4.1762,4.1809,4.1855,4.1937,4.199,4.2029,4.2087,4.2157,4.2216,4.2232,4.2255,4.2254,4.2273,4.2246,4.2245,4.2243,4.2231,4.2258,4.2258,4.2296,4.2297,4.2297]}]]